TimeCST,TemperatureF,Dew PointF,Humidity,Sea Level PressureIn,VisibilityMPH,Wind Direction,Wind SpeedMPH,Gust SpeedMPH,PrecipitationIn,Events,Conditions,WindDirDegrees,DateUTC
6:00 AM,74,64,63,29.86,12,East,5.8,,,,,90,2014-02-22 12:00:00
6:00 AM,73.4,64.4,73,29.85,-9999.0,East,5.8,-,N/A,,Clear,90,2014-02-22 12:00:00
7:00 AM,77.0,64.4,65,29.87,-9999.0,SE,5.8,-,N/A,,Clear,130,2014-02-22 13:00:00
8:00 AM,84.2,64.4,51,29.88,-9999.0,ESE,10.4,-,N/A,,Clear,110,2014-02-22 14:00:00
9:00 AM,86,62,34,29.89,12,ENE,11.5,,,,,70,2014-02-22 15:00:00
9:00 AM,86.0,62.6,45,29.89,-9999.0,ENE,11.5,-,N/A,,Clear,70,2014-02-22 15:00:00
10:00 AM,89.6,60.8,38,29.87,-9999.0,East,13.8,25.3,N/A,,Clear,100,2014-02-22 16:00:00
11:00 AM,91.4,60.8,36,29.85,6.2,ENE,17.3,28.8,N/A,,Smoke,70,2014-02-22 17:00:00
12:00 PM,92,60,25,29.82,12,East,18.4,,,,Smoke,90,2014-02-22 18:00:00
12:00 PM,91.4,60.8,36,29.82,6.2,East,18.4,-,N/A,,Smoke,90,2014-02-22 18:00:00
1:00 PM,93.2,60.8,34,29.79,6.2,East,17.3,28.8,N/A,,Partly Cloudy,90,2014-02-22 19:00:00
2:00 PM,95.0,60.8,32,29.76,6.2,East,19.6,-,N/A,,Partly Cloudy,100,2014-02-22 20:00:00
3:00 PM,94,61,24,29.74,12,East,18.4,,,,Smoke,90,2014-02-22 21:00:00
3:00 PM,93.2,60.8,34,29.74,6.2,East,18.4,29.9,N/A,,Smoke,90,2014-02-22 21:00:00
4:00 PM,91.4,60.8,36,29.75,6.2,East,18.4,-,N/A,,Smoke,90,2014-02-22 22:00:00
5:00 PM,89.6,64.4,43,29.75,-9999.0,NE,18.4,-,N/A,,Clear,50,2014-02-22 23:00:00
6:00 PM,86,65,40,29.79,12,ENE,17.3,,,,,70,2014-02-23 00:00:00
6:00 PM,86.0,64.4,48,29.77,-9999.0,ENE,17.3,-,N/A,,Clear,70,2014-02-23 00:00:00
7:00 PM,82.4,64.4,54,29.79,-9999.0,ENE,15.0,-,N/A,,Clear,70,2014-02-23 01:00:00
8:00 PM,80.6,64.4,58,29.81,-9999.0,ENE,15.0,-,N/A,,Clear,70,2014-02-23 02:00:00